This demonstration page uses our WeatherBlox Daily Observations layout. Learn more.

Left ArrowRight Arrow

38.20091, -84.87328

Hourly Observations for March 31, 2022

Temp ( °F °C ) Dew Point ( °F °C ) Humidity (%) Winds ( mph kmh ) Pressure ( in mb ) Visibility ( mi km ) Precip ( " mm )
12:08 am 00:08 Cloudy with Rain 64 17.8 57 13.9 78 78 SW 35 56 29.48 998 4 6 0.02 0.51
12:53 am 00:53 Cloudy with Light Rain 60 15.6 57 13.9 90 90 WSW 10 17 29.47 998 6 10 0.07 1.78
1:53 am 01:53 Cloudy 59 15 56 13.3 90 90 S 12 19 29.44 997 10 16 0.06 1.52
2:53 am 02:53 Cloudy 61 16.1 57 13.9 87 87 SSW 23 37 29.41 996 10 16 0.02 0.51
3:13 am 03:13 Partly Cloudy 60 15.6 57 13.9 90 90 S 20 31 29.42 996 10 16 0.00 0.00
3:45 am 03:45 Mostly Cloudy 60 15.6 56 13.3 86 86 SSW 17 28 29.43 997 10 16 0.00 0.00
3:53 am 03:53 Mostly Cloudy 60 15.6 56 13.3 86 86 SSW 20 31 29.42 996 10 16 0.00 0.00
4:18 am 04:18 Partly Cloudy 59 15 56 13.3 90 90 SSW 15 24 29.45 997 10 16 0.00 0.00
4:53 am 04:53 Partly Cloudy 59 15 55 12.8 87 87 SSW 18 30 29.42 996 10 16 0.00 0.00
5:53 am 05:53 Mostly Clear 59 15 54 12.2 83 83 SSW 16 26 29.40 996 10 16 0.00 0.00
6:53 am 06:53 Cloudy 60 15.6 53 11.7 78 78 S 17 28 29.41 996 10 16 0.00 0.00
7:48 am 07:48 Cloudy with Light Rain 55 13 52 11 88 88 WSW 15 24 29.48 998 3 4 0.02 0.51
7:53 am 07:53 Cloudy with Light Rain 54 12.2 51 10.6 90 90 W 12 19 29.46 998 3 5 0.03 0.76
8:00 am 08:00 Cloudy with Light Rain 54 12.2 51 10.6 90 90 WSW 16 26 29.49 999 4 6 0.00 0.00
8:53 am 08:53 Cloudy 52 11.1 49 9.4 89 89 WSW 13 20 29.51 999 10 16 0.00 0.00
9:03 am 09:03 Cloudy 52 11.1 48 8.9 86 86 WSW 13 20 29.54 1000 10 16 0.00 0.00
9:18 am 09:18 Cloudy 51 10.6 47 8.3 86 86 WSW 18 30 29.54 1000 10 16 0.00 0.00
9:40 am 09:40 Cloudy 50 10 47 8.3 89 89 W 12 19 29.55 1001 10 16 0.00 0.00
9:53 am 09:53 Cloudy 50 10 46 7.8 86 86 W 12 19 29.53 1000 10 16 0.00 0.00
10:53 am 10:53 Cloudy 48 8.9 44 6.7 86 86 W 14 22 29.57 1001 10 16 0.00 0.00
11:39 am 11:39 Cloudy 47 8.3 43 6.1 86 86 W 12 19 29.61 1003 9 14 0.00 0.00
11:53 am 11:53 Cloudy 48 8.9 42 5.6 80 80 WSW 15 24 29.59 1002 10 16 0.00 0.00
12:33 pm 12:33 Cloudy 45 7.2 40 4.4 83 83 W 10 17 29.63 1003 10 16 0.00 0.00
12:53 pm 12:53 Cloudy 45 7.2 40 4.4 83 83 W 15 24 29.62 1003 10 16 0.00 0.00
1:41 pm 13:41 Cloudy 44 6.7 38 3.3 79 79 WSW 10 17 29.65 1004 10 16 0.00 0.00
1:53 pm 13:53 Cloudy 45 7.2 39 3.9 80 80 WSW 8 13 29.63 1003 10 16 0.00 0.00
2:53 pm 14:53 Cloudy 45 7.2 37 2.8 74 74 WSW 15 24 29.63 1003 10 16 0.00 0.00
3:53 pm 15:53 Cloudy 46 7.8 37 2.8 71 71 WSW 8 13 29.63 1003 10 16 0.00 0.00
4:53 pm 16:53 Cloudy 45 7.2 35 1.7 68 68 WSW 14 22 29.64 1004 10 16 0.00 0.00
5:03 pm 17:03 Cloudy 45 7.2 36 2.2 71 71 WSW 10 17 29.66 1004 10 16 0.00 0.00
5:53 pm 17:53 Cloudy 44 6.7 34 1.1 68 68 WSW 9 15 29.66 1005 10 16 0.00 0.00
6:02 pm 18:02 Cloudy 44 6.7 34 1.1 68 68 WSW 9 15 29.69 1005 10 16 0.00 0.00
6:53 pm 18:53 Cloudy 44 6.7 34 1.1 68 68 WSW 10 17 29.69 1005 10 16 0.00 0.00
7:53 pm 19:53 Cloudy with Light Rain 43 6.1 36 2.2 76 76 WSW 9 15 29.72 1006 7 11 0.01 0.25
8:35 pm 20:35 Cloudy 42 5.6 38 3.3 85 85 W 6 9 29.76 1008 10 16 0.01 0.25
8:53 pm 20:53 Cloudy with Light Rain 41 5 38 3.3 89 89 WSW 7 11 29.75 1007 6 10 0.01 0.25
9:29 pm 21:29 Cloudy with Light Rain 41 5 39 3.9 93 93 WSW 8 13 29.80 1009 4 6 0.02 0.51
9:40 pm 21:40 Cloudy 41 5 38 3.3 89 89 SW 9 15 29.80 1009 10 16 0.02 0.51
9:53 pm 21:53 Cloudy 41 5 38 3.3 89 89 WSW 8 13 29.78 1008 10 16 0.02 0.51
10:53 pm 22:53 Cloudy 41 5 38 3.3 89 89 W 5 7 29.78 1008 10 16 0.00 0.00
11:04 pm 23:04 Cloudy 41 5 38 3.3 89 89 WSW 5 7 29.81 1009 10 16 0.00 0.00
11:53 pm 23:53 Cloudy 41 5 38 3.3 89 89 WSW 6 9 29.80 1009 10 16 0.00 0.00

Powered by AerisWeather